Flag for Austria Weather past 2 weeks in Scheibbs, Lower Austria, Austria

Now
56 °F

Fog.


Feels Like: 56 °F
Forecast: 40 / 47 °F
Wind: 2 mph from West

Location: Amstetten

Current Time: Mar 29, 2015 at 6:08:31 PM

Latest Report: Mar 29, 2015 at 5:00 PM


Visibility: N/A

Pressure: 29.70 "Hg

Humidity: 64%

Dew point: 44 °F

Location of ScheibbsLocation

Historic Weather in Scheibbs — Graph

°F

Scheibbs temperature yesterday

Maximum temperature yesterday: 51 °F (at 5:00 PM)
Minimum temperature yesterday: 33 °F (at 11:00 PM)
Average temperature yesterday: 45 °F

Past Weeks' High & Low Weather Summary

 TemperatureHumidityPressure
High61 °F (Mar 24, 4:00 PM)95% (Mar 29, 6:00 AM)30.41 "Hg (Mar 29, 6:00 AM)
Low26 °F (Mar 21, 6:00 AM)30% (Mar 20, 4:00 PM)29.63 "Hg (Mar 25, 5:00 PM)
Average45 °F68%30.10 "Hg
* Reported Mar 14 3:00 PM — Mar 29 4:00 PM, Scheibbs, Weather by CustomWeather, © 2015

Note: Actual official high and low records may vary slightly from our data, if they occured in-between our weather recording intervals... More about our weather records

Advertising

Scheibbs weather history for previous 24 hours

 ConditionsComfort  
Time TempWeatherWind HumidityBarometerVisibility
4:00 PM
Sun, Mar 29
58 °FRefreshingly cool.6 mph57%29.72 "HgN/A
3:00 PM58 °FRefreshingly cool.6 mph58%29.74 "HgN/A
2:00 PM56 °FCool.1 mph67%29.78 "HgN/A
1:00 PM54 °FCool.3 mph71%29.81 "HgN/A
12:00 PM51 °FCool.2 mph79%29.84 "HgN/A
11:00 AM46 °FCool.1 mph87%29.88 "HgN/A
10:00 AM42 °FQuite cool.No wind92%29.91 "HgN/A
9:00 AM40 °FQuite cool.1 mph93%29.95 "HgN/A
8:00 AM39 °FOvercast.1 mph93%29.97 "HgN/A
7:00 AM38 °FChilly.2 mph93%29.98 "HgN/A
6:00 AM37 °FFog.1 mph95%29.98 "HgN/A
5:00 AM37 °FFog.1 mph91%30.00 "HgN/A
4:00 AM37 °FChilly.1 mph84%30.01 "HgN/A
3:00 AM34 °FChilly.2 mph89%30.04 "HgN/A
1:00 AM32 °FChilly.1 mph89%30.05 "HgN/A
12:00 AM33 °FChilly.No wind90%30.06 "HgN/A
11:00 PM
Sat, Mar 28
33 °FChilly.No wind88%30.07 "HgN/A
9:00 PM38 °FChilly.1 mph77%30.09 "HgN/A
8:00 PM40 °FQuite cool.1 mph70%30.09 "HgN/A
7:00 PM42 °FQuite cool.1 mph64%30.08 "HgN/A
6:00 PM50 °FCool.2 mph46%30.07 "HgN/A
Weather by CustomWeather, © 2015

See weather overviewHow to use our weather pages